sat.trackr.live / text

‹ back to catalog

ONEWEB-0660

NORAD 55820 · 2023-029AA

PAYLOAD ACTIVE UNKNOWN

§ Identity

Operator
Country
UK
Launch date
2023-03-09
Launch site
AFETR
Launch vehicle
Mass (kg)
RCS (m²)

Purposes: comms

External: N2YO · Heavens-Above · Gunter

§ Orbital elements

Epoch: 2026-09-19T23:16:38.967744Z

Period
109.55 min
Inclination
87.8900°
Eccentricity
0.0002067
Mean motion
13.14504478 rev/d
Perigee alt
1,204.2 km
Apogee alt
1,207.4 km
Semi-major
7,583.9 km
B*
-5.0962e-4
RAAN
270.7995°
Arg perigee
84.5653°
Mean anomaly
275.5713°
Rev number
17,185

§ Raw data

ONEWEB-06601 55820U 23029AA  26262.96989546 -.00000176  00000+0 -50962-3 0  99902 55820  87.8900 270.7995 0002067  84.5653 275.5713 13.14504478171858

JSON: /api/v1/satellites/55820 · /tle

For live sub-satellite position, see the globe view (requires WebGL).

§ Visibility from observer

Set your observer location to see the next 7 days of passes ≥ 10°. The values pass through the URL so the page stays shareable.

No JS? Fill the form by hand. The geolocation button needs JavaScript.